Preview of NWS' New Version of Forecast
This preview is not operational and should not be used for support decisions.

Regional Weather Roundup (RWR)

Issued by National Weather Service (NWS)

                            
000
ASUS43 KBIS 231810
RWRND 

NORTH DAKOTA REGIONAL WEATHER ROUNDUP
NATIONAL WEATHER SERVICE BISMARCK ND
100 PM CDT THU MAY 23 2019

NOTE: "FAIR" INDICATES FEW OR NO CLOUDS BELOW 12,000 FEET WITH NO
SIGNIFICANT WEATHER AND/OR OBSTRUCTIONS TO VISIBILITY.


NDZ001>003-009>011-017-231900-
NORTHWEST NORTH DAKOTA
  
CITY           SKY/WX    TMP DP  RH WIND       PRES   REMARKS
WILLISTON      SUNNY     67  35  30 CALM      30.10F                  
6HR MIN TEMP:  36; 6HR MAX TEMP:  68;                                

MINOT          SUNNY     68  38  33 N12G21    30.09F                  
MINOT AFB      MOSUNNY   67  39  36 NE14G20   30.07F                  
$$
 
NDZ018>021-031>035-040>046-231900-
SOUTHWEST NORTH DAKOTA
  
CITY           SKY/WX    TMP DP  RH WIND       PRES   REMARKS
BISMARCK       MOSUNNY   62  42  47 NE13      30.11S                  
6HR MIN TEMP:  46; 6HR MAX TEMP:  62;                                

DICKINSON      MOSUNNY   59  40  49 E13G22    30.11F                  
GARRISON         N/A     64  39  39 NE10G21   30.09F                  
6HR MIN TEMP:  38; 6HR MAX TEMP:  64;                                

HETTINGER ARPT PTSUNNY   56  41  57 E15G28    30.14R                  
$$
 
NDZ004>008-012>016-024-026-027-054-231900-
NORTHEAST NORTH DAKOTA
  
CITY           SKY/WX    TMP DP  RH WIND       PRES   REMARKS
GRAND FORKS    CLOUDY    58  45  62 N14       30.05S                  
GRND FRKS AFB  PTSUNNY   60  46  59 N15G23    30.06S                  
DEVILS LAKE    SUNNY     61  41  47 NE15G23   30.09S                  
$$
 
NDZ022-023-025-028>030-036>039-047>053-231900-
SOUTHEAST NORTH DAKOTA
  
CITY           SKY/WX    TMP DP  RH WIND       PRES   REMARKS
FARGO          CLOUDY    53  45  74 N9        30.08R                  
6HR MIN TEMP:  47; 6HR MAX TEMP:  54;                                

JAMESTOWN      CLOUDY    56  46  69 NE10      30.09R                  
$$